Terug naar catalogus

STARLINK-5126

ActiefCommunicatieVLEO
NORAD 54012·PAYLOAD·🇺🇸 United States

Gelanceerd Oct 5, 2022 vanaf Vandenberg Space Force Base

Loading…

Volgende Passages (komende 24 uur)

TLE

VersSource: CelesTrak SupGP

Epoch: Sep 15, 2026, 01:32 UTC

1 54012C 22125BA  26258.06437500 -.00027941  00000+0 -89868-3 0  2586
2 54012  53.1593  60.2734 0001268  86.6466 101.3028 15.31709872    14

Volg STARLINK-5126 in realtime met AllMySat

Download on the App Store